7 * 24
多渠道服务支持
STARLINK-37444(NORAD编号68817)是美国SpaceX公司星链(Starlink)星座中的一颗第二代V2 Mini卫星,隶属于星链全球卫星互联网组网计划。该卫星于2024年12月4日由SpaceX猎鹰9号火箭从加利福尼亚州范登堡太空部队基地发射入轨,此次发射共包含20颗星链卫星,其中13颗具备直接到手机(Direct to Cell)通信功能。作为近地轨道卫星,它主要为全球偏远地区、网络覆盖盲区提供高速低延迟互联网接入,同时支持应急通信与移动通信扩展服务,助力星链实现全球无缝网络覆盖的建设目标,目前该卫星已正常进入预定轨道运行。
美国
(US)
| 数据来源 | 国际轨道数据 |
| 星历时间: | 2026-05-24T10:13:25+0800 1天前 查看轨道信息 |
| 半长轴: | 6722.208km |
| 偏心率: | 0.0002252 |
| 轨道倾角: | 97.285° |
| 近地点辐角 | 80.137° |
| 升交点赤经 | 350.701° |
| 平近点角 | 280.015° |
| 近地点: | 342.557km |
| 远地点: | 345.585km |
| 周期: | 91.417分钟 |
| 每日圈数: | 15.751969 |